Wind_Speed
27 29 29 29 29 28 28 29 30 32 32 34 34 35 35 35 36 38 38 39 38 40 42 43 44 44 43 42 41 41 41 41 42 41 40 39 39 37 36 37 36 35 35 35
25 26 26 27 27 27 27 27 29 30 30 30 31 32 32 33 34 35 36 36 37 39 41 42 43 43 43 41 41 42 42 41 42 42 41 41 40 38 38 38 38 37 36 36
23 23 24 25 25 25 25 24 26 27 26 27 28 29 29 30 31 33 34 34 36 38 39 41 41 43 44 42 42 42 43 44 43 43 43 43 42 41 40 40 38 38 38 37
20 21 22 23 23 23 24 23 23 24 23 23 25 27 26 26 28 30 32 32 33 36 38 40 41 42 43 42 42 42 44 44 44 45 45 44 44 42 41 40 40 40 40 40
18 20 21 22 22 23 21 22 22 22 22 22 22 25 25 25 26 28 29 30 32 34 36 38 40 41 41 42 43 42 44 45 45 46 46 45 45 44 43 42 41 42 43 43
18 18 19 21 21 21 20 21 22 22 23 23 21 23 24 23 24 25 27 29 31 33 35 36 38 40 40 41 42 43 43 44 45 45 46 46 46 45 45 45 44 42 43 43
17 17 18 20 20 20 20 21 21 22 22 22 22 23 22 21 22 23 25 27 29 31 33 35 37 38 39 40 41 42 43 43 44 45 46 48 48 47 47 47 46 44 43 44
15 16 18 19 20 19 19 21 20 21 21 21 21 21 20 20 21 21 23 25 27 29 31 34 36 37 38 39 42 42 43 43 43 44 46 47 48 47 48 48 47 46 45 44
15 16 17 19 20 20 20 20 19 20 20 21 21 21 20 20 21 22 23 25 27 30 31 33 35 37 38 38 40 41 43 43 43 44 44 45 46 46 47 47 47 47 45 43
15 16 16 17 19 20 20 19 19 20 20 20 21 20 18 19 21 22 24 25 27 29 31 32 33 34 36 36 37 39 41 42 42 44 44 44 44 45 46 46 46 45 45 44
16 16 16 17 17 18 19 21 21 20 21 21 20 20 19 19 20 22 25 25 26 28 29 31 31 33 34 35 37 38 39 40 40 40 41 43 43 43 44 45 45 45 45 44
15 16 17 17 17 19 20 19 20 21 21 22 22 20 19 19 19 21 23 24 25 27 29 31 31 32 33 34 36 37 38 39 40 40 40 41 42 42 43 43 44 44 44 43
15 16 17 17 17 18 18 18 20 21 24 25 25 22 20 20 20 21 22 23 24 27 30 32 32 32 33 34 35 36 38 39 40 40 39 39 40 40 41 42 43 44 45 45
16 17 18 18 17 17 18 19 20 21 22 25 24 22 21 22 22 22 23 23 25 26 28 30 33 34 34 34 35 36 38 39 39 39 39 39 39 40 41 42 43 44 45 45
17 18 18 18 18 18 18 19 20 21 21 23 22 22 20 22 23 23 23 23 24 26 28 29 31 32 33 34 34 36 37 38 38 38 38 39 40 40 42 43 43 44 44 45
16 18 18 18 18 19 20 20 20 21 22 22 22 21 20 22 23 23 23 23 24 26 27 29 31 32 32 33 34 34 35 37 38 38 39 40 40 41 41 42 43 44 45 46
16 17 18 19 19 20 19 19 20 21 21 21 22 21 21 22 23 24 24 24 24 26 28 29 29 30 31 32 33 34 35 36 37 38 39 40 40 41 41 42 42 43 43 44
17 17 18 18 19 20 19 19 20 21 21 20 21 21 22 22 22 23 24 24 24 25 27 28 28 28 29 30 32 33 34 35 36 38 40 41 41 41 41 41 42 41 42 42
18 18 19 19 20 20 19 19 20 21 21 21 21 21 21 22 23 23 23 23 24 24 25 26 26 28 29 30 31 32 33 34 35 36 38 39 40 40 41 40 40 40 40 41
18 19 19 19 20 20 19 18 19 20 21 21 22 22 22 22 23 22 23 23 23 23 24 25 25 27 28 29 30 30 32 33 34 35 36 37 39 39 40 40 39 39 39 39
19 19 19 20 20 20 19 19 19 20 20 21 22 23 24 24 24 23 23 24 24 25 24 25 25 25 27 28 29 30 32 32 33 34 35 35 36 36 37 38 39 39 38 38
19 19 19 20 20 20 19 19 20 20 21 22 23 24 24 25 25 25 24 23 24 25 25 26 26 26 27 28 29 30 30 31 32 32 34 34 34 34 35 35 36 37 37 37
20 20 21 21 21 21 20 21 21 22 23 23 23 24 24 24 25 25 25 25 25 25 26 27 27 28 28 29 29 30 30 30 31 31 32 33 34 34 34 34 34 33 35 35
22 22 22 22 21 22 22 22 23 24 24 24 24 24 24 24 24 24 25 26 26 26 27 27 28 29 29 30 31 31 31 31 31 31 31 31 31 32 33 33 33 32 33 33
22 22 21 21 21 23 23 24 24 23 23 23 24 23 24 25 25 25 25 25 25 26 27 28 29 30 30 30 31 31 32 31 31 31 31 31 31 31 31 31 30 32 32 32
21 21 22 22 23 24 23 24 23 22 23 23 23 24 24 24 24 25 25 25 26 27 27 28 28 30 30 31 31 32 32 31 31 31 31 30 30 29 30 30 30 30 31 32
Wind_Direction
257 255 254 255 257 260 261 261 259 257 255 253 253 253 251 250 246 244 243 241 239 236 233 230 229 228 228 230 231 232 232 234 235 236 238 239 241 243 245 246 247 249 251 255
257 256 255 253 255 259 262 263 260 257 255 255 253 252 250 250 246 244 244 241 239 236 232 229 227 227 228 230 232 232 232 233 235 237 238 239 242 244 245 247 249 250 253 256
260 258 254 253 255 260 261 262 260 257 256 256 255 252 247 247 248 245 244 242 242 237 232 229 228 228 228 231 233 233 233 234 237 238 239 240 242 244 246 248 249 251 253 256
260 255 253 253 257 261 261 259 259 255 254 256 256 253 245 248 248 246 245 243 242 236 231 229 229 228 229 232 233 234 234 235 237 238 239 241 243 245 247 250 251 252 254 257
260 257 254 254 258 261 259 256 255 254 256 259 254 256 250 248 247 247 246 243 239 234 230 230 230 229 229 231 233 234 235 236 238 239 241 243 245 246 248 251 253 253 255 257
266 262 257 255 257 261 258 255 253 255 256 260 254 255 252 249 247 246 244 242 237 233 231 231 231 230 231 233 235 236 237 238 240 242 243 245 246 248 250 252 255 256 256 258
267 263 258 254 252 253 253 257 257 256 258 259 256 257 256 250 248 245 243 240 238 236 234 233 232 234 234 235 237 238 239 240 241 243 245 246 247 248 251 253 256 257 258 260
271 263 259 254 252 252 251 253 254 259 264 260 257 258 257 250 248 246 245 243 242 239 236 236 236 236 237 238 238 240 241 242 243 245 247 248 247 248 252 254 256 257 259 261
274 269 263 258 256 255 252 251 255 263 267 264 258 256 254 248 249 248 246 244 243 240 239 239 238 239 240 240 240 242 243 244 245 248 249 250 251 252 252 253 256 258 259 261
274 269 264 259 253 251 249 250 254 261 266 266 259 252 250 253 251 250 246 243 243 241 240 240 240 241 242 241 242 243 245 246 248 250 251 251 253 253 253 255 258 260 262 263
271 268 262 258 252 251 252 254 255 257 258 261 260 259 255 259 258 251 248 247 244 242 241 241 242 243 243 243 243 244 246 248 249 252 252 252 253 254 255 256 258 260 262 265
273 268 264 263 259 254 254 255 256 258 257 258 262 264 263 264 261 252 248 248 245 242 242 242 244 245 245 245 246 245 246 248 250 253 254 254 255 256 257 257 258 261 263 266
270 266 268 267 261 255 254 254 257 258 257 258 261 264 264 264 262 255 250 249 247 245 246 246 247 247 247 247 248 248 248 250 252 254 255 256 256 256 257 259 259 261 263 266
270 266 265 265 264 259 258 258 258 260 260 260 261 264 263 264 262 257 252 253 251 250 250 250 250 250 249 251 252 252 251 251 253 255 256 256 257 258 258 260 262 263 265 266
275 271 267 265 265 261 258 260 260 260 261 263 263 265 265 262 259 256 254 254 253 253 252 253 254 252 252 253 254 255 253 252 253 256 257 257 258 260 261 262 264 266 266 267
276 273 270 267 267 264 262 263 262 261 263 266 268 265 264 261 259 257 257 257 256 255 256 257 257 255 254 255 255 254 254 254 255 256 257 258 260 262 263 264 266 267 267 268
280 277 275 271 269 269 267 265 263 263 266 268 268 268 266 263 262 262 261 260 257 255 257 259 259 257 257 257 256 255 255 256 257 258 259 260 261 262 264 265 266 267 268 268
277 278 278 275 272 271 273 269 265 265 264 265 266 267 269 268 266 263 262 261 259 257 256 259 259 258 257 258 258 257 257 259 260 261 260 261 262 263 265 267 267 268 268 268
279 280 280 279 276 275 275 273 269 267 264 264 267 269 269 267 266 265 264 262 261 259 258 258 259 259 259 260 260 261 261 262 263 263 263 264 264 265 267 267 267 267 268 268
280 280 278 277 278 279 277 276 273 272 269 267 268 271 272 269 267 265 263 262 259 257 258 258 260 261 261 262 263 264 265 264 265 265 266 266 267 267 267 266 267 267 269 269
278 277 276 276 278 279 279 279 278 278 276 272 272 271 271 269 268 267 266 264 260 258 258 259 261 262 263 263 265 266 268 268 269 268 268 268 269 268 267 267 268 268 269 268
278 277 277 279 278 280 281 281 280 280 278 276 275 274 272 269 268 267 266 266 264 262 261 260 261 263 264 265 266 268 269 270 270 270 269 269 270 269 268 269 270 269 268 268
275 276 276 277 277 277 280 283 283 283 282 279 277 276 275 272 269 268 267 266 266 265 265 264 263 264 265 266 268 269 270 271 271 272 272 271 271 270 270 271 271 269 268 268
273 273 274 272 273 274 277 280 283 284 284 282 280 278 277 274 272 271 269 268 268 267 265 265 265 266 267 267 269 270 272 273 273 274 274 273 272 271 271 270 269 269 270 269
274 272 272 272 272 273 276 280 282 283 282 281 281 280 280 276 272 271 271 270 270 270 268 267 267 268 268 268 269 271 272 272 273 274 273 273 272 272 272 271 270 269 268 268
273 272 272 272 273 274 275 277 278 278 278 279 279 280 281 279 274 271 271 271 271 271 270 268 267 267 268 268 269 272 273 273 273 273 272 273 272 272 272 271 270 271 268 267
Height
5668 5670 5670 5671 5672 5673 5673 5672 5672 5673 5673 5674 5675 5677 5679 5679 5681 5684 5686 5689 5693 5697 5702 5707 5713 5719 5724 5730 5734 5739 5743 5747 5751 5755 5759 5762 5765 5768 5771 5773 5774 5776 5777 5779
5663 5663 5665 5664 5665 5665 5665 5665 5665 5665 5665 5666 5667 5669 5670 5671 5673 5676 5679 5681 5685 5689 5693 5699 5704 5710 5716 5721 5726 5730 5736 5740 5743 5747 5751 5754 5757 5760 5762 5765 5766 5768 5769 5771
5656 5658 5658 5658 5658 5659 5659 5659 5659 5659 5659 5659 5660 5662 5663 5665 5666 5669 5671 5674 5677 5681 5685 5691 5696 5702 5708 5713 5718 5723 5727 5731 5735 5739 5742 5745 5748 5751 5753 5756 5758 5760 5761 5763
5651 5652 5652 5653 5653 5653 5653 5654 5653 5653 5653 5653 5654 5654 5658 5658 5660 5662 5664 5667 5669 5673 5678 5683 5688 5694 5700 5705 5710 5715 5719 5723 5727 5730 5733 5737 5740 5743 5745 5747 5749 5751 5752 5753
5646 5647 5647 5648 5648 5648 5648 5648 5648 5648 5648 5648 5648 5648 5652 5652 5654 5656 5658 5660 5663 5667 5672 5676 5681 5687 5692 5697 5702 5706 5710 5714 5718 5721 5724 5728 5731 5734 5736 5737 5739 5741 5742 5744
5642 5642 5642 5642 5643 5643 5643 5644 5644 5643 5643 5643 5644 5643 5645 5647 5649 5651 5653 5654 5657 5661 5665 5670 5674 5679 5684 5688 5693 5697 5701 5705 5709 5712 5715 5718 5721 5724 5726 5728 5729 5731 5732 5734
5637 5637 5637 5638 5638 5638 5639 5640 5640 5639 5638 5639 5640 5639 5641 5643 5645 5646 5647 5649 5652 5655 5659 5663 5667 5672 5676 5680 5684 5688 5692 5696 5699 5702 5705 5709 5712 5715 5716 5718 5719 5721 5722 5723
5632 5633 5633 5633 5634 5634 5635 5635 5636 5636 5635 5635 5635 5634 5638 5639 5640 5641 5642 5644 5647 5649 5653 5657 5660 5664 5668 5671 5675 5680 5683 5687 5690 5693 5696 5698 5701 5704 5706 5708 5709 5710 5711 5712
5627 5628 5629 5629 5629 5630 5630 5631 5632 5631 5630 5631 5631 5632 5634 5635 5635 5636 5637 5639 5641 5643 5647 5650 5653 5656 5659 5663 5667 5671 5674 5677 5680 5683 5685 5688 5690 5693 5695 5697 5698 5699 5700 5701
5623 5624 5624 5624 5625 5625 5627 5627 5627 5626 5626 5626 5627 5628 5630 5630 5630 5631 5632 5633 5635 5638 5641 5643 5646 5649 5652 5655 5659 5662 5665 5668 5671 5673 5675 5678 5680 5682 5684 5686 5688 5689 5690 5690
5619 5620 5620 5620 5620 5620 5622 5622 5622 5621 5622 5622 5622 5626 5626 5625 5625 5626 5627 5628 5629 5632 5635 5637 5639 5642 5645 5647 5650 5653 5656 5658 5661 5663 5665 5668 5670 5672 5673 5675 5676 5678 5679 5680
5615 5615 5615 5615 5615 5615 5616 5616 5617 5618 5618 5617 5617 5622 5620 5621 5620 5621 5621 5622 5624 5626 5628 5631 5633 5635 5637 5640 5642 5644 5647 5649 5651 5653 5656 5657 5659 5661 5663 5664 5666 5667 5668 5669
5610 5610 5610 5610 5612 5611 5610 5611 5611 5612 5612 5612 5612 5617 5615 5615 5615 5615 5616 5617 5618 5620 5622 5624 5626 5628 5630 5632 5633 5636 5638 5640 5642 5644 5646 5647 5649 5651 5652 5654 5655 5657 5658 5659
5605 5605 5606 5606 5605 5605 5605 5606 5606 5606 5606 5607 5608 5609 5610 5609 5608 5609 5610 5611 5612 5614 5615 5617 5618 5620 5622 5623 5625 5627 5629 5630 5632 5634 5636 5638 5639 5641 5642 5644 5645 5646 5647 5648
5600 5600 5600 5600 5600 5600 5600 5600 5600 5600 5601 5601 5602 5602 5604 5602 5602 5603 5604 5604 5605 5607 5608 5610 5611 5612 5614 5615 5617 5618 5619 5621 5623 5624 5626 5628 5629 5631 5632 5633 5634 5635 5636 5636
5595 5595 5594 5594 5594 5594 5594 5595 5595 5595 5595 5595 5595 5597 5598 5596 5596 5597 5597 5598 5599 5600 5601 5602 5603 5604 5605 5607 5608 5609 5610 5612 5613 5615 5616 5618 5619 5621 5621 5622 5623 5624 5624 5624
5590 5589 5589 5589 5589 5588 5589 5591 5590 5590 5590 5590 5589 5591 5590 5590 5590 5590 5591 5591 5592 5592 5593 5594 5595 5596 5597 5598 5599 5600 5601 5603 5604 5605 5606 5608 5609 5610 5611 5611 5611 5612 5612 5612
5585 5584 5583 5583 5583 5582 5587 5585 5584 5583 5584 5584 5583 5584 5584 5583 5583 5584 5584 5584 5585 5585 5585 5586 5587 5588 5588 5589 5590 5591 5592 5593 5594 5595 5596 5597 5598 5599 5599 5599 5600 5600 5600 5601
5580 5579 5578 5577 5576 5577 5579 5578 5577 5577 5578 5578 5577 5577 5577 5576 5576 5577 5577 5576 5577 5578 5578 5579 5579 5580 5580 5581 5581 5582 5583 5583 5584 5585 5586 5586 5587 5587 5588 5588 5588 5588 5589 5589
5575 5574 5573 5572 5571 5571 5574 5572 5570 5570 5571 5572 5571 5570 5570 5569 5569 5571 5570 5569 5570 5570 5570 5571 5571 5571 5572 5572 5572 5573 5573 5574 5574 5575 5575 5575 5576 5576 5576 5576 5577 5577 5577 5578
5569 5568 5567 5566 5565 5565 5567 5565 5564 5565 5566 5564 5563 5563 5563 5562 5563 5563 5562 5562 5562 5562 5563 5563 5563 5564 5564 5564 5564 5564 5564 5564 5564 5564 5565 5565 5565 5565 5565 5566 5565 5566 5566 5566
5562 5561 5561 5560 5560 5562 5560 5559 5558 5558 5557 5557 5556 5556 5555 5555 5555 5555 5555 5555 5554 5554 5555 5555 5555 5556 5556 5556 5556 5556 5556 5555 5555 5555 5555 5555 5555 5555 5555 5555 5555 5555 5555 5555
5556 5556 5554 5555 5556 5555 5553 5552 5551 5551 5550 5550 5549 5549 5549 5548 5548 5548 5548 5547 5547 5546 5547 5547 5547 5548 5548 5547 5547 5547 5547 5546 5546 5546 5545 5545 5544 5544 5544 5544 5544 5544 5544 5544
5549 5548 5547 5547 5547 5547 5546 5545 5545 5544 5543 5543 5542 5541 5541 5541 5540 5540 5540 5539 5539 5539 5538 5538 5539 5539 5539 5538 5538 5538 5538 5537 5537 5536 5535 5535 5535 5534 5534 5534 5534 5534 5534 5534
5542 5541 5540 5539 5540 5539 5539 5538 5538 5537 5536 5535 5534 5533 5533 5532 5532 5532 5532 5531 5531 5530 5530 5530 5530 5530 5530 5530 5529 5529 5529 5528 5528 5527 5526 5526 5525 5525 5525 5524 5524 5524 5524 5524
5534 5534 5533 5533 5533 5532 5532 5531 5530 5529 5529 5528 5527 5526 5525 5524 5524 5524 5523 5523 5523 5522 5522 5521 5521 5521 5521 5520 5520 5520 5519 5518 5518 5518 5517 5517 5516 5516 5516 5515 5515 5513 5514 5514